This demonstration page uses our WeatherBlox Daily Observations layout. Learn more.

Left ArrowRight Arrow

44.8408, -93.29828

Hourly Observations for August 1, 2021

Temp ( °F °C ) Dew Point ( °F °C ) Humidity (%) Winds ( mph kmh ) Pressure ( in mb ) Visibility ( mi km ) Precip ( " mm )
12:53 am 00:53 Clear with Smoke 69 20.6 52 11.1 55 55 NNW 7 11 30.05 1018 4 6 0.00 0.00
1:53 am 01:53 Clear with Smoke 69 20.6 52 11.1 55 55 N 8 13 30.06 1018 5 8 0.00 0.00
2:53 am 02:53 Clear with Smoke 68 20 52 11.1 57 57 NNW 7 11 30.06 1018 5 8 0.00 0.00
3:53 am 03:53 Clear with Smoke 66 18.9 52 11.1 61 61 N 8 13 30.07 1018 5 8 0.00 0.00
4:53 am 04:53 Mostly Clear with Smoke 64 17.8 52 11.1 65 65 N 9 15 30.09 1019 5 8 0.00 0.00
5:53 am 05:53 Mostly Clear with Smoke 63 17.2 53 11.7 70 70 N 7 11 30.11 1020 6 10 0.00 0.00
6:53 am 06:53 Partly Cloudy with Smoke 63 17.2 53 11.7 70 70 N 10 17 30.14 1021 6 10 0.00 0.00
7:53 am 07:53 Sunny with Smoke 65 18.3 52 11.1 63 63 N 10 17 30.15 1021 7 11 0.00 0.00
8:53 am 08:53 Sunny with Smoke 69 20.6 53 11.7 57 57 VRB 7 11 30.17 1022 7 11 0.00 0.00
9:53 am 09:53 Sunny with Smoke 73 22.8 51 10.6 46 46 NNE 9 15 30.17 1022 9 14 0.00 0.00
10:53 am 10:53 Partly Cloudy with Smoke 76 24.4 46 7.8 35 35 NNE 16 26 30.17 1022 10 16 0.00 0.00
11:53 am 11:53 Mostly Cloudy 77 25 48 8.9 36 36 N 13 20 30.18 1022 10 16 0.00 0.00
12:53 pm 12:53 Mostly Cloudy 78 25.6 46 7.8 32 32 NNE 16 26 30.17 1022 10 16 0.00 0.00
1:53 pm 13:53 Mostly Cloudy 78 25.6 47 8.3 33 33 NNE 8 13 30.16 1022 10 16 0.00 0.00
2:53 pm 14:53 Mostly Cloudy 77 25 48 8.9 36 36 N 8 13 30.16 1021 10 16 0.00 0.00
3:53 pm 15:53 Mostly Cloudy 81 27.2 49 9.4 33 33 NNE 17 28 30.16 1021 10 16 0.00 0.00
4:53 pm 16:53 Mostly Cloudy 80 26.7 47 8.3 31 31 NE 13 20 30.16 1021 10 16 0.00 0.00
5:53 pm 17:53 Mostly Cloudy 79 26.1 47 8.3 32 32 NNE 14 22 30.15 1021 10 16 0.00 0.00
6:53 pm 18:53 Partly Cloudy 76 24.4 48 8.9 37 37 N 8 13 30.16 1021 10 16 0.00 0.00
7:53 pm 19:53 Partly Cloudy 75 23.9 49 9.4 40 40 NE 13 20 30.16 1021 10 16 0.00 0.00
8:53 pm 20:53 Mostly Clear 74 23.3 49 9.4 41 41 ENE 6 9 30.15 1021 10 16 0.00 0.00
9:53 pm 21:53 Clear 72 22.2 49 9.4 44 44 E 6 9 30.16 1022 10 16 0.00 0.00
10:53 pm 22:53 Clear 68 20 51 10.6 55 55 SE 5 7 30.16 1022 10 16 0.00 0.00
11:53 pm 23:53 Clear 68 20 51 10.6 55 55 Calm 30.17 1022 10 16 0.00 0.00

Powered by AerisWeather